Branson, MO

2:27 AM CDT on August 22, 2017 (GMT -0500)
Branson

Weather History for KBBG - November, 2012

Change the Weather History Date:

Tuesday, November 27, 2012

  Actual Average (KHRO) Record (KHRO)
Temperature  
Mean Temperature 35 °F -  
Max Temperature 46 °F 50 °F 76 °F (1999)
Min Temperature 24 °F 33 °F 11 °F (1896)
Degree Days  
Heating Degree Days 30    
Moisture  
Dew Point 22 °F    
Average Humidity 67    
Maximum Humidity 93    
Minimum Humidity 31    
Precipitation  
Precipitation 0.00 in - - ()
Sea Level Pressure  
Sea Level Pressure 30.35 in    
Wind  
Wind Speed 4 mph (NNW)    
Max Wind Speed 8 mph    
Max Gust Speed -    
Visibility 10 miles    
Events      
Averages and records for this station are not official NWS values.
T = Trace of Precipitation, MM = Missing Value Source: NWS Daily Summary

Daily Weather History Graph

Daily Weather History Graph

Search for Another Location

Airport or City:

Trip Planner

Search our weather history database for the weather conditions in past years. The results will help you decide how hot, cold, wet, or windy it might be!

Date:

Astronomy

Nov. 27, 2012 Rise Set
Actual Time 7:02 AM CST 4:58 PM CST
Civil Twilight 6:34 AM CST 5:26 PM CST
Nautical Twilight 6:02 AM CST 5:58 PM CST
Astronomical Twilight 5:31 AM CST 6:29 PM CST
Moon 4:29 PM CST (11/27) 6:09 AM CST (11/27)
Length of Visible Light 10h 51m
Length of Day
9h 55m
Waxing Gibbous, 99% of the Moon is Illuminated
Nov 27
Waxing Gibbous
Nov 28
Full
Dec 6
Last Quarter
Dec 13
New
Dec 19
First Quarter

Hourly Weather History & Observations

Time (CST) Temp. Windchill Dew Point Humidity Pressure Visibility Wind Dir Wind Speed Gust Speed Precip Events Conditions
12:15 AM 32.0 °F 25.6 °F 26.6 °F 80% 30.34 in 10.0 mi North 6.9 mph - N/A   Scattered Clouds
12:35 AM 32.0 °F 25.6 °F 26.6 °F 80% 30.34 in 10.0 mi North 6.9 mph - N/A   Partly Cloudy
12:55 AM 32.0 °F 27.5 °F 26.6 °F 80% 30.34 in 10.0 mi NNW 4.6 mph - N/A   Clear
1:15 AM 32.0 °F 24.8 °F 26.6 °F 80% 30.35 in 10.0 mi North 8.1 mph - N/A   Clear
1:35 AM 32.0 °F 26.4 °F 24.8 °F 75% 30.34 in 10.0 mi NNW 5.8 mph - N/A   Clear
1:55 AM 32.0 °F 24.8 °F 24.8 °F 75% 30.35 in 10.0 mi North 8.1 mph - N/A   Clear
2:15 AM 30.2 °F 24.3 °F 24.8 °F 80% 30.35 in 10.0 mi North 5.8 mph - N/A   Clear
2:35 AM 28.4 °F 21.2 °F 24.8 °F 86% 30.35 in 10.0 mi North 6.9 mph - N/A   Clear
2:55 AM 28.4 °F 22.2 °F 24.8 °F 86% 30.34 in 10.0 mi NNW 5.8 mph - N/A   Clear
3:15 AM 28.4 °F - 24.8 °F 86% 30.35 in 9.0 mi Calm Calm - N/A   Clear
3:35 AM 26.6 °F - 24.8 °F 93% 30.35 in 9.0 mi Calm Calm - N/A   Clear
3:55 AM 26.6 °F 19.1 °F 24.8 °F 93% 30.35 in 8.0 mi NNW 6.9 mph - N/A   Clear
4:15 AM 26.6 °F 20.0 °F 24.8 °F 93% 30.35 in 8.0 mi North 5.8 mph - N/A   Clear
4:35 AM 26.6 °F 21.2 °F 24.8 °F 93% 30.35 in 7.0 mi NNW 4.6 mph - N/A   Clear
4:55 AM 26.6 °F 21.2 °F 24.8 °F 93% 30.35 in 8.0 mi North 4.6 mph - N/A   Clear
5:15 AM 26.6 °F - 23.0 °F 86% 30.36 in 8.0 mi Calm Calm - N/A   Clear
5:35 AM 26.6 °F - 23.0 °F 86% 30.37 in 8.0 mi Calm Calm - N/A   Clear
6:48 AM 24.8 °F 16.9 °F 23.0 °F 93% 30.39 in 10.0 mi North 6.9 mph - N/A   Partly Cloudy
7:53 AM 26.6 °F 22.6 °F 23.0 °F 86% 30.41 in 10.0 mi North 3.5 mph - N/A   Clear
8:49 AM 26.6 °F 19.1 °F 23.0 °F 86% 30.43 in 10.0 mi NNW 6.9 mph - N/A   Clear
9:50 AM 30.2 °F 24.3 °F 21.2 °F 69% 30.44 in 10.0 mi NNW 5.8 mph - N/A   Clear
10:58 AM 35.6 °F 31.7 °F 17.6 °F 48% 30.43 in 10.0 mi NW 4.6 mph - N/A   Clear
11:58 AM 37.4 °F 34.9 °F 17.6 °F 45% 30.40 in 10.0 mi NNW 3.5 mph - N/A   Clear
1:58 PM 44.6 °F - 15.8 °F 31% 30.34 in 10.0 mi Calm Calm - N/A   Clear
2:58 PM 46.4 °F - 17.6 °F 32% 30.33 in 10.0 mi Calm Calm - N/A   Clear
3:47 PM 44.6 °F - 17.6 °F 34% 30.33 in 10.0 mi Calm Calm - N/A   Clear
4:56 PM 41.0 °F - 17.6 °F 39% 30.32 in 10.0 mi Calm Calm - N/A   Clear
5:50 PM 37.4 °F - 19.4 °F 48% 30.31 in 10.0 mi Calm Calm - N/A   Clear
6:58 PM 37.4 °F - 21.2 °F 52% 30.31 in 10.0 mi Calm Calm - N/A   Clear
7:54 PM 35.6 °F - 19.4 °F 52% 30.32 in 10.0 mi Calm Calm - N/A   Clear
8:15 PM 37.4 °F - 19.4 °F 48% 30.32 in 10.0 mi Calm Calm - N/A   Clear
8:35 PM 33.8 °F - 21.2 °F 60% 30.32 in 10.0 mi Calm Calm - N/A   Clear
8:50 PM 32.0 °F - 23.0 °F 69% 30.32 in 10.0 mi Calm Calm - N/A   Clear
8:55 PM 35.6 °F - 19.4 °F 52% 30.33 in 10.0 mi Calm Calm - N/A   Clear
9:15 PM 37.4 °F - 19.4 °F 48% 30.33 in 10.0 mi Calm Calm - N/A   Clear
9:35 PM 37.4 °F - 19.4 °F 48% 30.33 in 10.0 mi Calm Calm - N/A   Clear
9:55 PM 35.6 °F - 21.2 °F 56% 30.33 in 10.0 mi Calm Calm - N/A   Clear
10:15 PM 37.4 °F - 19.4 °F 48% 30.33 in 10.0 mi Calm Calm - N/A   Clear
10:35 PM 37.4 °F - 21.2 °F 52% 30.33 in 10.0 mi Calm Calm - N/A   Clear
10:55 PM 37.4 °F - 19.4 °F 48% 30.34 in 10.0 mi Calm Calm - N/A   Clear
11:15 PM 35.6 °F - 23.0 °F 60% 30.34 in 10.0 mi Calm Calm - N/A   Partly Cloudy
11:35 PM 35.6 °F - 19.4 °F 52% 30.35 in 10.0 mi Calm Calm - N/A   Clear
11:55 PM 32.0 °F - 19.4 °F 60% 30.36 in 10.0 mi Calm Calm - N/A   Clear